User: anonymous   Login
Location: Killam
(52.7910°N, 111.8608°W)
Time: 07:25:08
(UTC+00:00)
Language:

deb Kosmos-2227 - Orbit

View from above orbital plane
View from above orbital plane
View from above satellite
View from above satellite

Ground track
Ground track

The orbit data is extracted from the following two-line orbital elements,

1 22376U 92093BR  24142.22017017  .00004392  00000-0  18562-2 0  9998
2 22376  70.8912 222.5629 0056528 122.7230 272.6635 14.25221912618252
Epoch (UTC): 21 May 2024 05:17:02
Eccentricity: 0.0056528
inclination: 70.8912°
perigee height: 767 km
apogee height: 848 km
right ascension of ascending node: 222.5629°
argument of perigee: 122.7230°
revolutions per day: 14.25221912
mean anomaly at epoch: 272.6635°
orbit number at epoch: 61825

The dashed part of the orbit path shows where the satellite is in the earth's shadow,  

DLR